When you browse on this site, cookies collect data to enhance your experience and personalize the content and advertising you see.
Visit our Privacy Policy to learn more. By continuing to use the site, you agree to this use of cookies and data.
  • In Österreich
  • Länderverzeichnis
  • Für 7 Tage
  • Wassertemperatur
  • Wetterkarte
  • News
  • Widgets
  • user-avatar
    Anmelden

    Stündliche Wetter Sölden

    Heute, 22 Oktober, Dienstag

    Zeit Temperatur Niederschläge Wind Luftdruck Luftfeuchtigkeit
    00:00 +5°C° 0 mm 1 m/S 587 mmHg 96%
    01:00 +5°C° 0 mm 1 m/S 587 mmHg 96%
    02:00 +5°C° 0 mm 1 m/S 587 mmHg 96%
    03:00 +5°C° 0 mm 1 m/S 587 mmHg 95%
    04:00 +5°C° 0 mm 1 m/S 586 mmHg 95%
    05:00 +4°C° 0 mm 1 m/S 586 mmHg 94%
    06:00 +4°C° 0 mm 1 m/S 586 mmHg 93%
    07:00 +4°C° 0 mm 1 m/S 587 mmHg 92%
    08:00 +6°C° 0 mm 1 m/S 587 mmHg 88%
    09:00 +7°C° 0 mm 1 m/S 588 mmHg 84%
    10:00 +9°C° 0 mm 1 m/S 589 mmHg 80%
    11:00 +10°C° 0 mm 1 m/S 589 mmHg 77%
    12:00 +11°C° 0 mm 1 m/S 589 mmHg 73%
    13:00 +11°C° 0 mm 1 m/S 590 mmHg 70%
    14:00 +11°C° 0 mm 1 m/S 589 mmHg 73%
    15:00 +10°C° 0 mm 1 m/S 589 mmHg 77%
    16:00 +10°C° 0 mm 1 m/S 588 mmHg 80%
    17:00 +8°C° 0 mm 1 m/S 588 mmHg 83%
    18:00 +7°C° 0 mm 1 m/S 587 mmHg 87%
    19:00 +6°C° 0 mm 1 m/S 587 mmHg 90%
    20:00 +5°C° 0 mm 1 m/S 587 mmHg 90%
    21:00 +5°C° 0 mm 1 m/S 587 mmHg 89%
    22:00 +5°C° 0 mm 1 m/S 586 mmHg 89%
    23:00 +5°C° 0 mm 1 m/S 586 mmHg 88%

    Morgen, 23 Oktober, Mittwoch

    Zeit Temperatur Niederschläge Wind Luftdruck Luftfeuchtigkeit
    00:00 +4°C° 0 mm 1 m/S 586 mmHg 86%
    01:00 +4°C° 0 mm 1 m/S 586 mmHg 85%
    02:00 +4°C° 0 mm 1 m/S 585 mmHg 83%
    03:00 +4°C° 0 mm 1 m/S 585 mmHg 81%
    04:00 +3°C° 0 mm 1 m/S 584 mmHg 80%
    05:00 +3°C° 0 mm 1 m/S 584 mmHg 78%
    06:00 +3°C° 0 mm 1 m/S 584 mmHg 76%
    07:00 +3°C° 0 mm 1 m/S 584 mmHg 75%
    08:00 +5°C° 0 mm 1 m/S 585 mmHg 70%
    09:00 +7°C° 0 mm 1 m/S 586 mmHg 66%
    10:00 +10°C° 0 mm 1 m/S 587 mmHg 62%
    11:00 +9°C° 0 mm 2 m/S 587 mmHg 60%
    12:00 +10°C° 0 mm 2 m/S 587 mmHg 59%
    13:00 +10°C° 0 mm 2 m/S 587 mmHg 57%
    14:00 +10°C° 0 mm 2 m/S 586 mmHg 62%
    15:00 +9°C° 0 mm 2 m/S 586 mmHg 66%
    16:00 +8°C° 0 mm 2 m/S 585 mmHg 71%
    17:00 +8°C° 0 mm 1 m/S 585 mmHg 76%
    18:00 +6°C° 0 mm 1 m/S 584 mmHg 81%
    19:00 +5°C° 0 mm 1 m/S 583 mmHg 86%
    20:00 +4°C° 0 mm 1 m/S 583 mmHg 84%
    21:00 +4°C° 0 mm 1 m/S 583 mmHg 82%
    22:00 +4°C° 0 mm 1 m/S 583 mmHg 80%
    23:00 +3°C° 0 mm 1 m/S 583 mmHg 80%

    übermorgen, 24 Oktober, Donnerstag

    Zeit Temperatur Niederschläge Wind Luftdruck Luftfeuchtigkeit
    00:00 +3°C° 0 mm 1 m/S 582 mmHg 79%
    01:00 +3°C° 0 mm 1 m/S 582 mmHg 79%
    02:00 +3°C° 0 mm 1 m/S 582 mmHg 80%
    03:00 +3°C° 0 mm 1 m/S 581 mmHg 80%
    04:00 +2°C° 0 mm 1 m/S 581 mmHg 81%
    05:00 +2°C° 0 mm 1 m/S 581 mmHg 80%
    06:00 +2°C° 0 mm 1 m/S 581 mmHg 80%
    07:00 +2°C° 0 mm 1 m/S 581 mmHg 80%
    08:00 +4°C° 0.1 mm 1 m/S 581 mmHg 78%
    09:00 +5°C° 0.1 mm 1 m/S 582 mmHg 77%
    10:00 +6°C° 0.1 mm 1 m/S 583 mmHg 75%
    11:00 +7°C° 0 mm 1 m/S 583 mmHg 73%
    12:00 +7°C° 0 mm 2 m/S 583 mmHg 70%
    13:00 +8°C° 0 mm 2 m/S 584 mmHg 68%
    14:00 +7°C° 0.2 mm 2 m/S 583 mmHg 74%
    15:00 +7°C° 0.2 mm 1 m/S 583 mmHg 79%
    16:00 +6°C° 0.2 mm 1 m/S 582 mmHg 85%
    17:00 +5°C° 0 mm 1 m/S 582 mmHg 86%
    18:00 +5°C° 0 mm 1 m/S 582 mmHg 88%
    19:00 +4°C° 0 mm 1 m/S 582 mmHg 89%
    20:00 +4°C° 0 mm 1 m/S 582 mmHg 90%
    21:00 +3°C° 0 mm 0 m/S 582 mmHg 91%
    22:00 +2°C° 0 mm 0 m/S 582 mmHg 92%
    23:00 +3°C° 0 mm 0 m/S 583 mmHg 91%

    25 Oktober, Freitag

    Zeit Temperatur Niederschläge Wind Luftdruck Luftfeuchtigkeit
    00:00 +3°C° 0 mm 0 m/S 583 mmHg 89%
    01:00 +4°C° 0 mm 1 m/S 583 mmHg 88%
    02:00 +3°C° 0 mm 0 m/S 583 mmHg 88%
    03:00 +3°C° 0 mm 0 m/S 584 mmHg 87%
    04:00 +3°C° 0 mm 0 m/S 584 mmHg 87%
    05:00 +3°C° 0 mm 0 m/S 584 mmHg 88%
    06:00 +4°C° 0 mm 1 m/S 584 mmHg 88%
    07:00 +3°C° 0 mm 1 m/S 584 mmHg 89%
    08:00 +5°C° 0 mm 1 m/S 585 mmHg 84%
    09:00 +6°C° 0 mm 1 m/S 586 mmHg 79%
    10:00 +8°C° 0 mm 1 m/S 587 mmHg 75%
    11:00 +9°C° 0 mm 1 m/S 587 mmHg 72%
    12:00 +9°C° 0 mm 1 m/S 588 mmHg 69%
    13:00 +10°C° 0 mm 1 m/S 588 mmHg 66%
    14:00 +10°C° 0 mm 1 m/S 588 mmHg 69%
    15:00 +9°C° 0 mm 1 m/S 587 mmHg 72%
    16:00 +9°C° 0 mm 1 m/S 587 mmHg 75%
    17:00 +7°C° 0 mm 1 m/S 586 mmHg 80%
    18:00 +6°C° 0 mm 1 m/S 586 mmHg 85%
    19:00 +5°C° 0 mm 1 m/S 585 mmHg 90%
    20:00 +4°C° 0 mm 1 m/S 585 mmHg 91%
    21:00 +4°C° 0 mm 1 m/S 585 mmHg 91%
    22:00 +4°C° 0 mm 1 m/S 585 mmHg 92%
    23:00 +3°C° 0 mm 1 m/S 585 mmHg 92%

    26 Oktober, Samstag

    Zeit Temperatur Niederschläge Wind Luftdruck Luftfeuchtigkeit
    00:00 +3°C° 0 mm 1 m/S 585 mmHg 92%
    01:00 +3°C° 0 mm 1 m/S 584 mmHg 92%
    02:00 +3°C° 0 mm 1 m/S 584 mmHg 91%
    03:00 +2°C° 0 mm 1 m/S 584 mmHg 90%
    04:00 +2°C° 0 mm 1 m/S 584 mmHg 89%
    05:00 +2°C° 0 mm 1 m/S 584 mmHg 87%
    06:00 +2°C° 0 mm 1 m/S 584 mmHg 86%
    07:00 +2°C° 0 mm 1 m/S 584 mmHg 84%
    08:00 +4°C° 0 mm 1 m/S 585 mmHg 77%
    09:00 +6°C° 0 mm 1 m/S 586 mmHg 71%
    10:00 +9°C° 0 mm 1 m/S 588 mmHg 64%
    11:00 +10°C° 0 mm 1 m/S 588 mmHg 62%
    12:00 +10°C° 0 mm 1 m/S 588 mmHg 60%
    13:00 +11°C° 0 mm 1 m/S 588 mmHg 58%
    14:00 +10°C° 0 mm 1 m/S 587 mmHg 63%
    15:00 +10°C° 0 mm 1 m/S 587 mmHg 69%
    16:00 +9°C° 0 mm 1 m/S 586 mmHg 74%
    17:00 +7°C° 0 mm 1 m/S 586 mmHg 79%
    18:00 +5°C° 0 mm 1 m/S 585 mmHg 84%
    19:00 +3°C° 0 mm 0 m/S 585 mmHg 89%
    20:00 +2°C° 0 mm 0 m/S 584 mmHg 89%
    21:00 +2°C° 0 mm 0 m/S 584 mmHg 89%
    22:00 +3°C° 0 mm 1 m/S 584 mmHg 89%
    23:00 +3°C° 0 mm 1 m/S 584 mmHg 89%

    27 Oktober, Sonntag

    Zeit Temperatur Niederschläge Wind Luftdruck Luftfeuchtigkeit
    00:00 +2°C° 0 mm 1 m/S 584 mmHg 89%
    01:00 +2°C° 0 mm 1 m/S 584 mmHg 89%
    02:00 +2°C° 0 mm 1 m/S 584 mmHg 88%
    03:00 +2°C° 0 mm 1 m/S 584 mmHg 88%
    04:00 +2°C° 0 mm 1 m/S 584 mmHg 87%
    05:00 +2°C° 0 mm 1 m/S 584 mmHg 87%
    06:00 +2°C° 0 mm 1 m/S 584 mmHg 86%
    07:00 +2°C° 0 mm 1 m/S 584 mmHg 86%
    08:00 +4°C° 0 mm 1 m/S 585 mmHg 81%
    09:00 +5°C° 0 mm 1 m/S 586 mmHg 77%
    10:00 +6°C° 0 mm 0 m/S 587 mmHg 72%
    11:00 +8°C° 0 mm 1 m/S 587 mmHg 70%
    12:00 +8°C° 0 mm 1 m/S 587 mmHg 68%
    13:00 +9°C° 0 mm 1 m/S 588 mmHg 66%
    14:00 +8°C° 0 mm 1 m/S 587 mmHg 70%
    15:00 +8°C° 0 mm 1 m/S 587 mmHg 74%
    16:00 +7°C° 0 mm 1 m/S 586 mmHg 78%
    17:00 +5°C° 0 mm 0 m/S 586 mmHg 83%
    18:00 +4°C° 0 mm 0 m/S 585 mmHg 88%
    19:00 +2°C° 0 mm 0 m/S 585 mmHg 93%
    20:00 +2°C° 0 mm 0 m/S 585 mmHg 93%
    21:00 +2°C° 0 mm 0 m/S 585 mmHg 93%
    22:00 +2°C° 0 mm 0 m/S 585 mmHg 93%
    23:00 +2°C° 0 mm 0 m/S 585 mmHg 94%

    28 Oktober, Montag

    Zeit Temperatur Niederschläge Wind Luftdruck Luftfeuchtigkeit
    00:00 +2°C° 0 mm 0 m/S 584 mmHg 94%
    01:00 +2°C° 0 mm 0 m/S 584 mmHg 94%
    02:00 +2°C° 0 mm 0 m/S 584 mmHg 94%
    03:00 +1°C° 0 mm 0 m/S 583 mmHg 94%
    04:00 +1°C° 0 mm 0 m/S 583 mmHg 94%
    05:00 +1°C° 0 mm 0 m/S 583 mmHg 92%
    06:00 +2°C° 0 mm 1 m/S 583 mmHg 91%
    07:00 +3°C° 0 mm 1 m/S 583 mmHg 90%
    08:00 +4°C° 0 mm 1 m/S 584 mmHg 86%
    09:00 +5°C° 0 mm 1 m/S 584 mmHg 82%
    10:00 +6°C° 0 mm 1 m/S 585 mmHg 78%
    11:00 +7°C° 0 mm 1 m/S 586 mmHg 73%
    12:00 +8°C° 0 mm 1 m/S 586 mmHg 68%
    13:00 +9°C° 0 mm 1 m/S 586 mmHg 63%
    14:00 +9°C° 0 mm 1 m/S 586 mmHg 67%
    15:00 +8°C° 0 mm 1 m/S 585 mmHg 71%
    16:00 +8°C° 0 mm 1 m/S 585 mmHg 75%
    17:00 +6°C° 0 mm 1 m/S 584 mmHg 79%
    18:00 +5°C° 0 mm 1 m/S 584 mmHg 82%
    19:00 +3°C° 0 mm 1 m/S 583 mmHg 86%
    20:00 +3°C° 0 mm 1 m/S 583 mmHg 86%
    21:00 +3°C° 0 mm 1 m/S 583 mmHg 85%
    22:00 +3°C° 0 mm 1 m/S 583 mmHg 85%
    23:00 +3°C° 0 mm 1 m/S 583 mmHg 85%
    Mehr zeigen